Flag for Germany Weather past 2 weeks in Schweinfurt, Bavaria, Germany

Now
48 °F

Passing clouds.


Feels Like: 48 °F
Forecast: 49 / 69 °F
Wind: 2 mph from North

Location: Wuerzburg

Current Time: May 23, 2015 at 4:44:05 AM

Latest Report: May 23, 2015 at 4:00 AM


Visibility: 22 mi

Pressure: 30.17 "Hg

Humidity: 74%

Dew point: 40 °F

Location of SchweinfurtLocation

Historic Weather in Schweinfurt — Graph

°F

Schweinfurt temperature yesterday

Maximum temperature yesterday: 68 °F (at 6:00 PM)
Minimum temperature yesterday: 40 °F (at 6:00 AM)
Average temperature yesterday: 55 °F

Past Weeks' High & Low Weather Summary

 TemperatureHumidityPressure
High83 °F (May 12, 3:00 PM)92% (May 11, 5:00 AM)30.38 "Hg (May 11, 5:00 AM)
Low40 °F (May 22, 6:00 AM)26% (May 15, 5:00 PM)29.71 "Hg (May 18, 8:00 PM)
Average59 °F57%30.09 "Hg
* Reported May 8 3:00 AM — May 23 3:00 AM, Schweinfurt, Weather by CustomWeather, © 2015

Note: Actual official high and low records may vary slightly from our data, if they occured in-between our weather recording intervals... More about our weather records

Advertising

Schweinfurt weather history for previous 24 hours

 ConditionsComfort  
Time TempWeatherWind HumidityBarometerVisibility
3:00 AM
Sat, May 23
49 °FClear.2 mph73%30.19 "Hg25 mi
2:00 AM50 °FClear.2 mph68%30.19 "Hg28 mi
1:00 AM52 °FClear.2 mph65%30.20 "Hg34 mi
12:00 AM54 °FClear.2 mph58%30.21 "Hg34 mi
11:00 PM
Fri, May 22
56 °FPassing clouds.2 mph53%30.21 "Hg34 mi
10:00 PM57 °FPassing clouds.1 mph49%30.21 "Hg34 mi
9:00 PM61 °FPartly sunny.2 mph41%30.19 "Hg37 mi
8:00 PM63 °FPartly sunny.5 mph35%30.19 "Hg37 mi
7:00 PM65 °FPartly sunny.2 mph33%30.18 "Hg37 mi
6:00 PM68 °FPartly sunny.3 mph29%30.19 "Hg37 mi
5:00 PM67 °FPartly sunny.3 mph31%30.21 "Hg37 mi
4:00 PM65 °FPartly sunny.3 mph30%30.23 "Hg43 mi
3:00 PM67 °FPartly sunny.5 mph31%30.24 "Hg43 mi
2:00 PM66 °FScattered clouds.3 mph33%30.27 "Hg37 mi
1:00 PM63 °FScattered clouds.5 mph35%30.30 "Hg37 mi
12:00 PM63 °FPassing clouds.3 mph34%30.31 "Hg37 mi
11:00 AM60 °FScattered clouds.2 mph38%30.33 "Hg28 mi
10:00 AM56 °FScattered clouds.2 mph50%30.35 "Hg25 mi
9:00 AM51 °FPassing clouds.1 mph61%30.37 "Hg22 mi
8:00 AM47 °FScattered clouds.1 mph70%30.37 "Hg22 mi
7:00 AM42 °FScattered clouds.1 mph81%30.38 "Hg19 mi
6:00 AM40 °FPassing clouds.2 mph86%30.37 "Hg16 mi
5:00 AM41 °FClear.2 mph83%30.38 "Hg22 mi
4:00 AM42 °FClear.3 mph79%30.38 "Hg25 mi
Weather by CustomWeather, © 2015

See weather overviewHow to use our weather pages